ORBCOMM FM06 1 25118U 97084G 26254.56723380 .00000802 00000+0 25422-3 0 9995 2 25118 45.0150 356.8124 0001609 233.7030 315.9947 14.47740094506905 ORBCOMM FM04 1 25159U 98007C 26255.20466373 .00000536 00000+0 22842-3 0 9991 2 25159 107.9604 348.5157 0040702 176.8059 183.3348 14.35859096489082 ORBCOMM FM19 1 25415U 98046C 26255.09784728 .00000677 00000+0 25982-3 0 9997 2 25415 44.9928 190.3950 0004766 4.9853 11.0011 14.39631692469304 ORBCOMM FM20 1 25416U 98046D 26255.12564166 .00000441 00000+0 19059-3 0 9991 2 25416 44.9929 199.1554 0002418 335.2019 24.8712 14.38167554469309 ORBCOMM FM27 1 25481U 98053G 26255.09532847 .00000513 00000+0 20950-3 0 9990 2 25481 45.0050 282.5224 0002929 275.3594 84.6920 14.39272072462758 ORBCOMM FM32 1 25982U 99065C 26255.04280478 .00000443 00000+0 19476-3 0 9998 2 25982 45.0147 122.0828 0005930 122.6648 237.4773 14.37235863399587 ORBCOMM FM109 1 40086U 14040A 26255.14379029 .00000240 00000+0 86826-4 0 9991 2 40086 47.0041 40.3384 0002065 255.4539 104.6118 14.58915192647041 ORBCOMM FM110 1 41182U 15081D 26254.52976461 .00000330 00000+0 10587-3 0 9999 2 41182 47.0026 313.1540 0002029 132.3691 227.7367 14.58985533570234 ORBCOMM FM118 1 41183U 15081E 26255.18119676 .00000331 00000+0 10603-3 0 9990 2 41183 47.0047 310.4304 0001752 69.2398 290.8675 14.58969302570431 ORBCOMM FM112 1 41184U 15081F 26255.25296131 .00000346 00000+0 10931-3 0 9991 2 41184 46.9980 218.5084 0003579 259.5474 100.5009 14.58954061571667 ORBCOMM FM113 1 41185U 15081G 26255.23250500 .00000224 00000+0 83463-4 0 9996 2 41185 46.9995 219.0262 0002378 263.6836 96.3779 14.58929023571646 ORBCOMM FM108 1 41187U 15081J 26254.64513170 .00000392 00000+0 11896-3 0 9993 2 41187 47.0043 133.3904 0002508 244.9293 115.1333 14.58975945572707 ORBCOMM FM117 1 41188U 15081K 26255.02235116 .00000391 00000+0 11868-3 0 9996 2 41188 47.0004 130.2211 0002995 251.6594 108.3967 14.58958569572802 ORBCOMM FM116 1 41189U 15081L 26255.27669568 .00000232 00000+0 85169-4 0 9996 2 41189 47.0012 218.8159 0000441 80.2512 279.8424 14.58955952571653